Location: Detroit
(42.3310°N, 83.0460°W)
Time: 13:09:57
(UTC-05:00)

Tiros 1 despin weight - Pass Details

Date: 02 December 2023
Orbit: 581 x 624 km, 48.2° (Epoch: 01 March)

Event Time Altitude Azimuth Distance (km) Brightness Sun altitude
Rises 19:57:20 0° 245° (WSW) 2,793 ? -32.0°
Reaches altitude 10° 19:59:37 10° 246° (WSW) 1,893 ? -32.4°
Enters shadow 20:01:12 22° 248° (WSW) 1,284 ? -32.7°
